Dewpoint
-4 -4 -4 -4 -4 -5 -4 -5 -3 -4 -7 -7 -7 -7 -7 -5 -6 -5 -7 -7 -7 -5 -7 -3 2 5 6 8 8 7 7 7 8 6 4 2 1 -3 -5 -7 -7 -8 -9 -9
-3 -4 -4 -4 -5 -6 -6 -6 -6 -5 -5 -7 -8 -8 -4 -6 -5 -7 -8 -7 -5 -4 -2 -2 3 5 6 7 8 7 7 6 5 5 5 1 -2 -1 -1 -2 -5 -9 -9 -9
-3 -7 -6 -3 -7 -8 -7 -7 -6 -5 -7 -8 -7 -6 -3 -7 -6 -7 -7 -5 -3 -2 -1 1 3 6 6 7 7 6 6 6 4 3 3 1 1 -0 -2 -4 -7 -8 -8 -9
-1 -3 -1 -8 -8 -8 -7 -8 -9 -9 -9 -9 -8 -6 -7 -6 -6 -8 -6 -4 -2 -1 -4 1 2 4 5 5 5 5 5 4 2 2 0 -1 -3 -4 -3 -4 -6 -8 -10 -10
-1 -2 -5 -6 -8 -8 -7 -7 -9 -9 -10 -10 -7 -5 -5 -8 -9 -8 -6 -6 -2 -3 -5 1 3 4 3 3 3 2 2 1 0 -0 -1 -2 -3 -3 -4 -7 -9 -11 -10 -11
-1 -1 -2 -9 -8 -8 -7 -3 -10 -11 -8 -6 -5 -5 -7 -8 -7 -8 -8 -6 -2 -4 -4 -0 1 3 3 2 1 0 -0 -1 -1 -1 -2 -4 -5 -7 -9 -10 -11 -13 -13 -14
-2 -1 -4 -8 -8 -8 -4 -5 -8 -6 -6 -6 -6 -7 -7 -7 -7 -7 -8 -6 -3 -3 -2 1 1 1 2 2 0 -2 -2 -2 -3 -3 -3 -4 -5 -5 -9 -12 -14 -17 -20 -23
-4 -2 -2 -10 -8 -5 -7 -7 -6 -6 -6 -7 -7 -7 -7 -7 -5 -7 -7 -5 -3 -3 -1 0 0 0 1 0 -2 -2 -2 -2 -3 -3 -4 -5 -8 -13 -17 -22 -27 -28 -27 -26
-5 -7 -10 -9 -8 -9 -9 -8 -8 -8 -8 -8 -7 -6 -6 -6 -5 -7 -5 -2 -3 -2 -0 -0 -1 -1 -1 -2 -2 -2 -2 -3 -4 -4 -8 -13 -19 -24 -27 -27 -27 -25 -25 -24
-5 -6 -7 -8 -8 -8 -8 -8 -8 -8 -8 -7 -6 -6 -6 -5 -8 -5 -2 -1 -1 -2 -1 -1 -2 -2 -3 -3 -3 -3 -4 -5 -7 -11 -20 -23 -25 -25 -26 -25 -24 -23 -22 -21
-4 -5 -6 -6 -7 -7 -7 -7 -7 -7 -7 -7 -6 -6 -5 -6 -5 -3 -1 -1 -1 -2 -2 -3 -3 -4 -4 -4 -4 -4 -7 -9 -17 -22 -23 -24 -25 -24 -24 -22 -21 -20 -19 -19
-1 -2 -1 -1 -2 -2 -2 -2 -5 -5 -5 -6 -5 -5 -5 -4 -4 -2 -1 -2 -2 -3 -4 -5 -5 -5 -5 -5 -5 -11 -18 -21 -23 -24 -23 -22 -21 -22 -21 -20 -20 -19 -19 -19
-3 -4 -4 -5 -5 -5 -4 -3 -3 -2 -3 -3 -4 -3 -3 -3 -2 -1 -2 -3 -3 -4 -5 -5 -5 -6 -6 -10 -17 -23 -23 -23 -23 -22 -22 -22 -22 -21 -20 -20 -20 -20 -20 -19
-5 -6 -7 -7 -7 -6 -6 -6 -6 -5 -3 -1 -2 -1 -2 -2 -1 -2 -3 -4 -5 -6 -5 -6 -7 -8 -14 -21 -24 -24 -24 -24 -24 -23 -23 -23 -22 -22 -21 -21 -21 -20 -20 -19
-7 -8 -8 -7 -6 -6 -7 -7 -5 -4 -3 -1 -1 -2 -2 -2 -3 -4 -5 -6 -6 -6 -7 -7 -14 -20 -21 -23 -24 -24 -24 -23 -23 -22 -22 -22 -22 -21 -21 -20 -20 -20 -20 -20
-9 -9 -5 -4 -5 -6 -6 -5 -4 -3 -2 -2 -2 -2 -3 -3 -5 -7 -7 -7 -7 -8 -9 -21 -22 -21 -22 -23 -24 -24 -23 -22 -23 -23 -22 -22 -21 -21 -22 -23 -25 -26 -26 -27
-9 -9 -7 -4 -3 -3 -3 -2 -2 -2 -2 -2 -4 -4 -5 -6 -7 -8 -8 -8 -8 -16 -20 -22 -21 -22 -23 -24 -24 -23 -22 -22 -22 -22 -22 -22 -25 -28 -31 -32 -33 -33 -33 -33
-8 -7 -5 -5 -4 -4 -4 -3 -3 -3 -4 -5 -6 -7 -8 -7 -8 -8 -8 -10 -20 -20 -21 -22 -22 -23 -23 -23 -23 -23 -22 -22 -22 -23 -27 -30 -32 -33 -34 -33 -33 -33 -33 -33
-8 -7 -6 -5 -5 -5 -5 -5 -5 -7 -8 -8 -7 -8 -8 -8 -8 -9 -10 -19 -21 -21 -19 -21 -22 -23 -23 -23 -23 -22 -23 -23 -27 -31 -33 -34 -34 -34 -33 -33 -33 -33 -32 -33
-8 -7 -7 -7 -7 -8 -8 -8 -8 -8 -8 -7 -8 -8 -8 -9 -9 -15 -21 -22 -21 -21 -20 -21 -22 -22 -22 -22 -23 -23 -26 -30 -33 -34 -34 -34 -33 -33 -33 -33 -33 -32 -33 -32
-8 -8 -8 -8 -8 -8 -8 -8 -8 -9 -9 -8 -8 -8 -9 -12 -17 -21 -22 -21 -19 -20 -21 -22 -22 -22 -22 -22 -24 -29 -33 -33 -34 -34 -33 -33 -32 -32 -32 -32 -33 -32 -32 -32
-7 -8 -8 -8 -8 -8 -8 -8 -8 -8 -8 -7 -8 -13 -18 -19 -21 -22 -22 -22 -21 -21 -22 -22 -22 -22 -22 -26 -31 -32 -33 -33 -33 -32 -32 -32 -32 -32 -32 -32 -32 -32 -32 -32
-6 -7 -7 -8 -8 -8 -8 -8 -8 -7 -8 -13 -18 -21 -23 -22 -23 -23 -22 -21 -21 -21 -22 -22 -22 -23 -28 -32 -32 -32 -32 -32 -32 -31 -31 -31 -30 -31 -31 -32 -32 -32 -32 -32
-6 -6 -6 -7 -7 -7 -8 -8 -11 -15 -17 -19 -22 -23 -24 -24 -23 -22 -22 -21 -22 -22 -22 -22 -23 -29 -31 -32 -32 -31 -31 -31 -30 -30 -29 -29 -29 -29 -29 -30 -31 -32 -32 -31
-13 -12 -10 -9 -10 -12 -16 -17 -18 -18 -20 -21 -22 -23 -23 -23 -25 -23 -22 -21 -21 -22 -23 -24 -29 -31 -31 -31 -31 -30 -30 -29 -29 -28 -28 -28 -28 -28 -28 -28 -29 -31 -32 -32
-19 -21 -22 -23 -23 -21 -21 -20 -22 -21 -21 -22 -22 -22 -23 -23 -23 -23 -22 -22 -22 -22 -24 -29 -31 -31 -31 -30 -30 -29 -29 -28 -28 -27 -27 -27 -27 -27 -27 -27 -27 -28 -30 -32
-18 -19 -20 -22 -23 -23 -23 -24 -24 -24 -23 -23 -24 -23 -23 -23 -23 -23 -23 -22 -22 -22 -26 -30 -30 -31 -30 -30 -29 -29 -28 -27 -27 -27 -26 -26 -26 -26 -26 -26 -26 -27 -28 -30
Wind_Speed
18 15 16 24 27 20 20 24 22 30 27 27 26 22 26 19 16 16 20 24 29 31 39 37 35 28 22 22 14 12 12 12 10 9 13 13 14 12 14 12 11 10 9 9
22 14 20 29 27 25 26 26 28 27 29 29 32 28 14 10 13 16 21 25 27 31 34 39 39 30 21 22 20 19 15 14 17 18 19 17 15 11 8 7 9 11 11 12
23 15 20 19 17 16 18 20 19 19 23 22 20 16 10 10 12 16 20 23 25 30 33 35 40 27 17 22 18 13 11 11 10 11 16 15 13 12 10 9 8 9 10 10
11 13 12 10 5 16 20 20 17 16 20 18 18 11 7 10 10 16 18 22 24 27 36 32 34 25 14 16 14 15 16 14 15 15 13 14 13 12 13 13 14 14 14 14
4 10 20 18 14 15 5 13 10 15 16 19 10 5 11 8 15 18 19 24 24 28 33 28 28 18 6 9 14 15 16 15 15 14 13 13 14 12 12 10 12 14 13 13
6 10 18 14 7 7 14 17 11 25 14 2 1 5 7 23 21 24 24 24 25 29 32 26 24 18 10 9 11 14 15 17 16 16 15 15 14 15 13 12 12 12 12 15
12 12 11 13 22 23 14 19 10 3 4 6 8 12 26 24 25 23 22 25 26 28 28 22 21 15 11 11 13 15 17 17 17 17 14 14 14 12 11 11 13 15 16 17
8 9 13 14 9 14 19 20 12 13 17 24 30 31 31 29 23 24 23 23 24 25 23 19 15 11 9 13 16 17 16 16 15 15 15 13 11 14 15 13 15 18 17 19
9 10 17 20 23 30 32 34 39 37 38 33 30 28 26 29 25 23 21 19 21 20 18 12 6 8 14 19 17 16 17 18 17 15 13 14 16 17 17 18 20 22 23 25
19 22 33 37 42 41 39 38 39 36 32 29 28 27 26 21 25 19 19 17 15 17 10 4 9 16 18 18 17 17 20 19 17 17 19 19 20 20 23 24 23 23 24 24
24 32 38 35 37 39 38 39 38 37 35 28 28 25 23 19 18 18 17 13 11 8 7 13 17 18 16 16 14 18 18 18 21 21 20 21 23 23 23 23 22 23 24 23
20 35 30 36 36 36 38 40 37 31 31 29 25 24 15 16 17 14 11 9 5 11 19 21 20 19 15 13 11 14 19 21 22 21 20 20 20 22 21 21 21 22 23 23
29 42 47 50 50 42 39 41 42 38 37 33 29 20 17 15 13 8 4 3 10 20 22 22 20 20 15 13 16 20 22 22 21 20 20 20 21 21 22 21 21 21 21 21
33 38 46 36 45 47 40 36 36 35 20 28 25 19 14 12 7 4 6 14 21 25 24 22 22 20 16 18 20 22 22 21 21 21 21 22 22 22 21 21 20 21 22 24
40 42 41 49 48 40 25 16 17 17 15 19 15 15 12 12 11 14 18 23 27 25 24 22 22 22 20 20 21 22 22 22 22 23 22 21 20 20 20 20 22 23 24 24
44 44 44 44 30 24 13 5 2 7 18 17 18 20 20 17 22 26 28 28 28 26 23 24 25 22 20 20 21 23 22 21 21 21 20 20 20 20 20 22 23 24 25 26
31 39 42 39 32 22 16 12 19 24 24 25 27 25 26 30 32 32 29 26 25 26 25 24 24 21 20 20 21 22 22 20 20 20 19 20 21 22 23 23 22 23 24 26
23 23 21 22 22 23 24 25 23 25 26 25 29 30 33 34 35 32 29 26 28 28 25 23 22 21 21 20 20 20 19 20 19 20 21 21 22 21 20 23 25 24 25 27
23 22 19 20 19 19 20 22 23 26 28 29 31 34 34 34 32 29 27 28 29 28 25 21 20 20 20 19 19 19 19 19 20 21 21 20 21 22 23 23 24 26 28 29
22 22 19 20 21 23 25 25 25 27 27 28 34 36 35 31 28 30 30 30 27 26 22 21 20 20 20 19 18 18 18 19 21 21 21 21 21 22 23 25 26 27 27 28
21 21 22 22 23 23 23 23 25 29 32 33 32 33 31 29 29 28 29 30 25 22 21 20 19 20 18 17 17 20 20 20 19 20 21 21 21 23 25 25 25 27 28 30
18 19 21 22 23 24 22 23 24 27 29 29 28 28 30 29 27 27 26 27 25 21 20 20 19 18 18 18 19 18 18 19 20 20 21 23 24 24 25 25 27 28 29 30
15 17 18 20 21 23 24 24 26 26 25 25 27 27 27 27 25 26 27 24 22 20 20 20 19 18 17 17 17 18 19 19 20 22 23 23 23 24 25 26 27 28 29 30
11 12 15 17 18 19 21 20 21 21 22 23 23 22 22 25 25 23 24 23 21 19 20 21 19 16 15 16 18 19 18 19 21 22 22 22 23 23 24 26 27 28 28 29
10 11 12 12 14 17 19 19 21 22 22 22 22 21 20 20 21 23 21 21 19 18 19 19 17 16 15 16 17 17 18 20 20 20 21 21 21 23 25 26 28 28 29 30
9 10 11 12 13 15 16 16 17 18 19 21 21 20 19 19 20 20 19 18 18 17 17 18 16 15 15 14 15 17 18 18 18 19 19 19 21 22 24 26 27 28 29 29
9 8 10 11 11 11 12 13 14 17 18 19 21 21 18 18 18 18 18 17 17 16 16 16 15 13 13 13 14 16 16 16 16 16 17 19 20 22 24 26 27 27 27 28
Wind_Direction
262 278 288 282 279 285 271 266 260 277 272 282 271 286 290 301 315 322 336 339 338 339 340 339 339 337 311 284 230 198 214 220 214 187 151 138 147 142 127 123 105 88 81 74
274 275 275 279 281 277 268 265 258 259 267 271 284 285 272 297 303 323 332 337 337 338 340 340 338 329 291 274 245 231 202 172 157 160 151 143 131 131 124 96 82 72 68 58
278 292 295 288 284 277 271 261 267 269 272 281 290 274 261 292 306 315 325 331 335 337 340 340 343 334 287 265 238 212 190 168 157 146 144 148 137 126 104 96 78 71 70 68
284 300 269 267 304 300 286 282 289 281 274 281 271 278 258 266 297 315 322 328 333 338 341 343 343 338 293 250 217 187 174 165 153 150 143 136 124 111 100 90 86 81 65 57
263 263 278 294 279 276 293 301 295 294 289 298 251 238 271 319 324 316 323 326 328 339 341 340 335 319 260 200 179 169 154 147 141 134 129 113 101 89 87 91 79 67 58 48
256 278 282 296 258 266 324 289 294 288 303 245 96 300 315 325 318 319 323 324 328 337 338 338 338 312 259 181 163 140 131 127 126 118 109 99 91 89 85 68 64 58 49 36
256 262 269 267 260 272 276 278 307 243 5 347 306 301 306 310 304 314 317 320 327 333 335 336 330 301 253 200 157 131 124 115 104 98 91 85 90 84 79 74 65 54 41 38
271 259 273 242 250 231 261 282 282 287 290 294 296 301 305 306 304 314 314 317 325 331 337 331 320 275 215 162 140 132 119 116 114 103 92 84 90 83 79 67 62 57 52 44
237 256 272 272 267 273 279 281 283 285 291 293 289 292 293 301 307 310 314 313 322 333 333 307 277 217 165 136 138 134 127 113 98 89 98 95 84 79 72 62 56 53 45 40
277 256 266 270 271 270 273 272 273 275 279 282 279 283 289 293 313 309 314 314 320 334 308 234 165 152 140 136 131 123 111 104 106 103 92 87 81 71 62 56 47 45 42 37
271 277 286 276 275 275 273 269 267 269 270 269 275 284 286 297 308 310 306 315 330 322 186 151 146 134 127 125 122 110 107 107 98 92 84 76 70 64 57 54 46 43 39 33
287 302 294 295 296 290 279 269 261 257 263 264 264 269 274 300 299 300 305 326 311 172 151 142 135 122 119 112 103 114 105 99 93 89 85 79 72 66 61 56 48 43 37 33
300 303 299 295 294 291 284 278 269 258 252 254 256 255 273 270 270 280 286 235 182 158 142 133 124 112 108 118 115 110 105 102 98 92 88 83 77 72 65 55 46 40 35 30
314 316 309 306 300 296 285 278 278 279 280 241 241 253 230 231 220 204 176 169 156 142 134 127 118 112 114 113 109 105 102 101 98 93 85 78 72 66 60 53 48 43 36 30
329 327 315 314 316 306 289 279 270 269 267 199 219 206 194 181 159 147 151 149 143 136 126 120 115 113 115 114 112 108 102 97 93 86 79 73 68 62 55 49 41 34 30 29
336 348 355 351 15 36 48 20 297 152 155 148 157 162 155 146 138 136 138 140 137 123 118 120 115 114 115 112 106 101 96 93 88 82 75 68 63 59 54 47 41 34 26 21
350 349 358 7 17 34 47 79 125 133 135 140 139 140 140 137 134 133 129 124 115 118 119 117 113 114 112 108 104 101 96 89 81 77 74 69 61 55 49 42 37 34 29 23
15 18 25 33 45 68 89 106 117 124 124 130 135 136 135 134 126 124 122 122 120 116 112 110 110 111 109 104 98 94 92 86 81 76 71 64 56 50 45 42 38 34 30 26
31 33 38 53 62 76 86 98 108 118 126 131 133 129 127 124 123 121 124 124 117 113 109 110 110 109 103 97 96 92 86 84 78 72 65 60 54 50 47 43 37 32 29 26
48 54 54 62 75 85 94 101 109 115 123 127 126 126 124 123 125 126 124 117 112 112 114 113 111 105 100 93 89 91 88 82 73 66 62 59 55 50 46 42 37 31 28 25
53 63 70 74 81 89 96 108 114 116 123 127 126 123 122 124 123 123 122 115 113 113 112 111 108 101 98 101 96 85 78 73 71 68 64 60 54 48 44 40 35 32 28 26
59 67 79 87 89 95 100 106 113 122 125 124 123 124 123 122 124 122 116 112 113 114 113 108 106 104 99 91 84 82 81 77 73 70 64 57 51 46 41 38 34 31 28 25
73 78 85 90 96 104 113 117 123 126 126 125 124 125 124 124 124 122 117 114 115 117 115 111 104 98 95 92 91 87 81 76 71 65 60 54 48 44 40 36 33 30 27 24
93 96 97 101 108 116 115 117 120 119 119 120 122 124 127 130 126 122 119 118 121 123 117 106 102 102 101 95 87 82 79 74 68 62 57 52 48 42 40 37 33 30 27 25
105 104 110 118 123 120 121 126 127 128 130 128 128 129 130 131 128 125 125 123 121 121 117 115 112 104 97 91 85 81 76 70 64 61 56 50 45 41 40 36 33 30 28 26
113 113 115 119 121 126 130 134 134 135 137 135 133 132 132 132 126 125 128 129 130 128 122 115 109 103 96 93 88 80 73 68 63 57 53 48 45 43 40 36 33 30 28 26
138 132 129 126 124 129 134 140 143 142 145 146 143 140 140 139 135 136 136 135 133 130 125 117 112 110 102 93 84 78 72 66 59 54 49 47 43 40 37 34 32 29 27 26
Height
1541 1543 1543 1534 1528 1536 1536 1528 1526 1497 1503 1488 1488 1489 1486 1487 1486 1484 1481 1477 1471 1465 1457 1449 1443 1439 1435 1434 1433 1430 1427 1424 1420 1419 1420 1424 1424 1430 1429 1432 1431 1427 1434 1437
1537 1544 1539 1527 1525 1526 1521 1515 1504 1499 1490 1483 1485 1483 1484 1485 1484 1481 1478 1474 1469 1463 1456 1447 1440 1434 1431 1430 1427 1425 1424 1423 1422 1421 1418 1425 1426 1430 1433 1431 1435 1431 1436 1436
1534 1539 1533 1524 1512 1508 1504 1499 1499 1495 1486 1484 1481 1481 1483 1483 1482 1479 1476 1472 1467 1461 1454 1446 1438 1431 1428 1428 1426 1424 1424 1422 1423 1424 1421 1427 1429 1430 1433 1435 1431 1435 1436 1437
1538 1538 1535 1507 1507 1505 1498 1492 1491 1487 1482 1481 1479 1479 1480 1479 1478 1476 1473 1469 1464 1459 1452 1446 1439 1433 1429 1427 1426 1425 1423 1423 1423 1424 1430 1430 1432 1432 1434 1436 1436 1436 1435 1437
1544 1530 1513 1508 1503 1496 1493 1488 1488 1483 1478 1477 1476 1477 1478 1477 1476 1473 1470 1466 1462 1457 1452 1445 1441 1436 1432 1430 1429 1427 1426 1428 1428 1430 1433 1433 1435 1438 1440 1438 1437 1434 1440 1439
1536 1533 1517 1500 1497 1495 1494 1485 1483 1478 1476 1475 1476 1473 1473 1474 1472 1469 1466 1463 1459 1454 1450 1444 1441 1437 1433 1431 1432 1431 1432 1432 1431 1434 1433 1438 1439 1439 1442 1442 1442 1439 1439 1437
1525 1526 1505 1492 1491 1492 1496 1479 1479 1478 1479 1479 1478 1477 1472 1470 1467 1465 1462 1458 1456 1452 1447 1444 1441 1437 1435 1432 1432 1435 1435 1436 1437 1438 1441 1443 1443 1445 1447 1447 1443 1439 1438 1439
1516 1516 1504 1485 1486 1488 1478 1475 1476 1477 1474 1475 1473 1470 1466 1463 1462 1461 1458 1454 1452 1448 1444 1442 1440 1438 1436 1433 1434 1436 1437 1439 1440 1440 1442 1444 1448 1448 1448 1449 1443 1440 1443 1442
1509 1489 1479 1480 1477 1476 1474 1472 1470 1469 1467 1467 1464 1462 1461 1458 1457 1456 1454 1451 1448 1445 1443 1441 1440 1439 1437 1437 1438 1438 1438 1439 1441 1444 1446 1450 1450 1450 1449 1448 1446 1444 1442 1439
1497 1476 1469 1469 1466 1465 1464 1461 1459 1458 1458 1459 1457 1456 1455 1454 1453 1451 1450 1448 1445 1443 1441 1441 1441 1441 1440 1441 1442 1442 1442 1443 1445 1448 1450 1451 1449 1450 1446 1445 1449 1446 1444 1442
1478 1462 1457 1457 1455 1451 1449 1447 1447 1447 1448 1448 1449 1449 1449 1449 1448 1448 1446 1445 1444 1443 1441 1442 1443 1443 1446 1447 1447 1446 1446 1448 1449 1449 1450 1450 1450 1450 1449 1451 1451 1447 1445 1443
1468 1464 1458 1443 1442 1439 1433 1431 1432 1434 1435 1438 1440 1442 1444 1443 1444 1444 1444 1443 1443 1444 1442 1444 1446 1447 1450 1451 1451 1449 1450 1451 1451 1451 1454 1456 1456 1452 1454 1453 1452 1450 1448 1447
1472 1461 1451 1436 1428 1424 1420 1418 1416 1418 1421 1426 1432 1436 1438 1440 1440 1440 1442 1442 1443 1444 1445 1448 1450 1451 1454 1455 1454 1454 1454 1455 1456 1457 1459 1458 1458 1457 1457 1457 1456 1455 1453 1450
1467 1456 1433 1422 1411 1405 1403 1404 1405 1408 1409 1416 1423 1428 1432 1435 1437 1438 1440 1442 1444 1447 1449 1451 1452 1455 1458 1459 1459 1458 1459 1459 1461 1462 1462 1461 1462 1461 1461 1460 1460 1458 1455 1453
1459 1449 1437 1415 1396 1385 1387 1392 1396 1400 1404 1409 1417 1424 1430 1433 1435 1438 1441 1444 1448 1451 1453 1455 1458 1460 1463 1464 1464 1464 1464 1465 1466 1466 1467 1466 1467 1466 1465 1464 1462 1460 1457 1455
1452 1443 1428 1413 1401 1391 1391 1393 1396 1400 1403 1410 1417 1424 1428 1432 1436 1441 1446 1450 1452 1455 1458 1461 1463 1466 1468 1470 1469 1469 1470 1471 1471 1471 1471 1471 1471 1470 1469 1468 1465 1462 1459 1456
1457 1443 1429 1421 1414 1406 1402 1401 1403 1407 1412 1416 1422 1427 1431 1435 1440 1446 1452 1457 1459 1461 1464 1467 1469 1472 1474 1474 1475 1475 1475 1476 1476 1476 1476 1476 1475 1475 1473 1470 1467 1465 1462 1459
1460 1452 1443 1437 1428 1422 1416 1415 1416 1418 1421 1425 1429 1433 1437 1442 1447 1454 1458 1462 1464 1467 1470 1474 1476 1478 1479 1480 1480 1480 1482 1481 1481 1481 1481 1480 1479 1477 1476 1473 1470 1468 1464 1460
1460 1453 1447 1441 1437 1433 1431 1429 1429 1429 1432 1434 1437 1441 1447 1452 1456 1460 1464 1467 1470 1473 1477 1480 1482 1484 1485 1486 1486 1486 1486 1487 1487 1486 1484 1483 1482 1481 1478 1476 1473 1470 1465 1461
1463 1458 1454 1450 1446 1443 1441 1441 1441 1441 1444 1446 1448 1452 1456 1461 1464 1467 1471 1473 1478 1481 1483 1486 1489 1490 1490 1491 1491 1492 1492 1492 1490 1489 1487 1487 1487 1484 1481 1477 1473 1473 1468 1465
1468 1464 1460 1457 1455 1454 1453 1454 1452 1452 1456 1458 1459 1462 1465 1469 1473 1476 1478 1479 1485 1488 1490 1492 1494 1494 1496 1497 1497 1496 1495 1494 1494 1493 1491 1491 1490 1487 1483 1481 1479 1474 1471 1466
1474 1470 1466 1464 1463 1462 1463 1463 1464 1464 1466 1467 1469 1472 1474 1478 1481 1484 1486 1488 1491 1494 1496 1498 1499 1501 1501 1501 1501 1501 1501 1500 1499 1498 1496 1493 1491 1490 1487 1484 1481 1476 1473 1468
1479 1477 1475 1473 1472 1470 1471 1472 1473 1474 1474 1476 1478 1480 1482 1485 1488 1490 1491 1495 1497 1500 1502 1503 1504 1505 1506 1506 1506 1506 1505 1504 1503 1500 1499 1497 1496 1494 1490 1487 1484 1480 1475 1471
1482 1482 1480 1480 1480 1480 1478 1480 1481 1482 1483 1485 1486 1489 1491 1492 1494 1497 1499 1501 1504 1506 1507 1507 1509 1511 1511 1511 1509 1509 1509 1508 1506 1504 1502 1502 1500 1498 1494 1490 1487 1483 1479 1475
1485 1484 1484 1484 1484 1484 1485 1486 1486 1488 1489 1490 1492 1495 1497 1498 1500 1502 1505 1507 1509 1511 1511 1513 1514 1514 1514 1514 1514 1513 1513 1511 1510 1509 1507 1507 1505 1501 1497 1494 1490 1487 1482 1478
1487 1487 1487 1488 1489 1489 1490 1491 1492 1493 1494 1495 1497 1499 1502 1504 1505 1506 1509 1512 1514 1515 1516 1517 1517 1518 1518 1518 1518 1516 1515 1515 1514 1513 1512 1510 1507 1504 1501 1497 1494 1490 1486 1482
1488 1489 1490 1490 1491 1492 1493 1494 1495 1496 1499 1500 1502 1504 1507 1508 1510 1512 1514 1516 1517 1519 1520 1520 1521 1522 1521 1521 1520 1519 1519 1518 1518 1517 1516 1513 1510 1507 1503 1500 1496 1493 1490 1486